Wind_Speed
18 18 19 19 19 19 19 19 18 17 15 17 18 19 20 21 23 19 11 2 2 7 11 14 14 17 18 18 20 16 13 16 23 20 18 18 18 22 21 22 17 18 10 8 10
19 19 19 20 20 20 19 18 18 16 16 18 19 20 20 20 20 15 5 2 4 7 10 13 13 14 14 16 16 19 17 24 21 19 16 16 13 15 17 20 23 19 4 6 3
20 20 20 20 20 20 19 18 17 15 17 19 19 18 17 17 10 5 7 5 10 8 12 16 15 15 19 18 21 21 24 23 23 21 19 21 19 13 18 21 22 12 14 7 7
21 22 22 23 22 20 18 17 16 16 18 20 18 18 19 8 3 9 4 6 5 8 11 12 12 16 18 21 21 25 29 27 28 24 22 23 20 17 19 22 25 17 21 9 8
22 23 23 23 22 21 18 17 16 17 19 19 16 16 10 7 3 5 5 6 10 10 11 9 12 14 20 18 21 28 27 28 28 26 27 24 25 22 22 22 25 25 19 19 15
24 24 24 25 24 21 17 17 17 18 20 18 14 14 7 12 4 1 4 7 9 8 10 11 10 13 15 19 21 21 27 27 28 28 27 29 27 21 26 21 23 24 23 14 14
25 26 25 26 25 21 17 16 17 20 21 15 12 9 11 8 1 4 6 7 8 8 7 12 13 11 12 17 17 21 26 25 27 27 29 26 27 31 23 22 22 23 23 23 16
26 26 26 25 25 21 18 16 18 16 13 10 8 5 7 6 3 5 8 10 9 8 11 11 10 13 14 16 22 22 22 22 23 28 27 22 28 29 23 22 22 23 22 21 22
27 29 28 27 25 19 17 15 15 13 9 6 6 9 5 5 7 6 9 9 10 11 11 12 8 12 15 15 16 17 21 26 29 24 26 27 32 27 26 24 22 19 20 21 21
28 31 30 29 24 14 15 15 15 11 6 8 14 7 9 2 7 10 7 7 10 9 12 12 12 13 13 12 17 19 21 21 26 24 26 27 31 30 24 22 23 23 25 22 23
31 34 32 28 20 8 17 7 4 6 14 12 12 12 10 1 7 7 4 6 11 8 12 10 12 14 17 17 21 22 23 28 27 27 27 23 28 27 26 25 26 21 22 24 23
34 35 32 23 9 5 11 7 9 10 10 14 12 11 9 5 6 8 3 6 11 13 15 14 15 16 18 19 22 23 25 28 27 26 22 26 31 30 25 25 28 25 21 24 23
35 36 27 13 6 6 8 8 9 12 7 5 1 6 7 7 9 13 7 9 14 15 15 16 19 20 21 21 23 25 22 24 27 24 22 26 30 30 30 25 25 26 26 23 25
37 34 21 9 10 8 2 10 11 9 5 8 8 3 6 6 13 2 7 5 10 16 16 15 19 20 18 21 19 21 21 25 26 23 17 21 21 23 23 26 27 24 23 23 23
39 33 15 6 12 8 11 11 11 5 3 5 8 6 4 8 11 8 5 9 16 19 17 18 18 19 23 21 26 24 21 21 23 22 23 25 16 19 24 27 25 23 21 22 22
40 29 13 8 10 8 10 12 6 5 1 6 2 4 9 10 14 4 9 12 19 21 16 16 10 18 19 25 28 21 16 21 21 19 20 27 22 23 22 25 25 25 27 20 20
39 21 8 10 9 12 13 10 5 5 5 4 8 11 13 16 7 9 7 16 12 9 14 16 17 4 9 12 19 14 15 14 16 14 19 25 25 24 20 29 30 24 21 23 21
34 9 4 9 9 11 13 9 5 12 12 13 11 16 18 2 8 7 14 14 3 2 10 11 15 12 13 15 17 20 19 8 9 15 17 22 14 21 24 34 28 23 10 7 24
28 5 7 8 4 9 7 5 4 10 11 11 14 12 10 10 11 12 14 11 8 10 10 12 15 20 21 18 13 18 16 18 17 19 14 10 21 23 22 29 22 22 7 3 4
22 12 1 3 3 7 5 10 12 10 9 11 13 8 14 16 14 14 15 11 10 11 11 16 20 19 20 19 16 19 19 16 6 5 8 14 16 11 21 23 21 22 19 8 6
6 4 5 3 3 5 5 11 12 14 9 6 13 14 14 14 14 15 17 16 15 14 18 21 12 17 19 19 16 14 15 16 11 10 13 10 11 12 21 18 17 25 13 11 7
8 3 6 5 3 4 7 5 7 9 7 9 12 13 10 13 16 15 18 12 13 16 15 13 6 15 21 24 14 17 21 1 4 14 11 7 15 11 14 21 27 26 17 14 6
6 5 4 2 3 6 10 12 13 5 9 9 11 14 11 15 13 10 16 16 13 14 8 5 5 13 13 9 8 10 20 18 6 14 16 14 13 17 24 31 32 13 9 10 5
5 4 2 4 4 8 12 13 9 6 5 7 11 14 12 13 13 12 18 6 9 15 19 5 13 16 13 19 9 9 19 19 11 9 15 13 18 16 21 24 31 25 8 6 3
3 4 5 6 9 11 11 15 14 11 6 7 11 10 14 13 17 18 18 21 18 19 11 2 9 15 18 20 23 18 22 23 25 22 17 16 15 6 4 8 19 19 25 2 4
5 5 7 11 11 10 8 13 13 14 13 13 14 12 9 13 16 24 23 18 15 14 8 6 9 15 20 20 21 19 24 23 20 24 23 19 16 7 20 11 24 25 15 7 6
8 3 4 8 8 11 8 8 14 12 9 11 15 18 18 17 19 19 20 22 20 15 17 9 7 10 17 16 19 13 1 9 19 23 23 14 16 15 8 9 15 18 14 12 11
Wind_Direction
348 346 344 341 338 336 334 332 328 323 324 322 325 322 319 316 316 302 249 56 310 336 310 290 273 263 253 242 248 233 244 251 251 250 259 276 281 298 300 308 253 259 224 65 52
347 344 342 339 335 332 331 329 324 322 323 323 323 320 319 322 312 275 153 63 330 323 322 288 257 243 239 240 228 232 239 243 253 273 284 269 261 285 287 289 288 243 179 70 253
348 345 341 337 332 328 328 326 323 321 323 325 323 321 322 331 288 100 109 346 320 303 280 284 274 275 261 243 238 232 244 245 250 254 268 284 288 258 271 265 267 265 277 168 238
345 343 340 338 333 327 324 321 316 314 318 322 320 322 322 300 348 127 354 358 334 290 282 271 263 245 250 250 248 252 247 246 254 261 268 271 281 266 272 276 284 262 234 178 204
342 339 337 334 330 326 320 316 308 308 314 318 315 323 333 233 76 128 351 288 297 259 291 288 277 271 256 250 249 248 252 260 259 254 259 260 257 266 254 260 275 282 270 191 186
341 338 335 333 330 324 317 312 304 304 309 310 308 318 268 276 78 82 309 288 278 306 305 295 284 297 299 287 276 269 261 258 255 259 254 255 257 254 252 252 264 273 280 263 192
340 337 333 330 327 323 314 309 303 302 303 297 298 309 274 276 324 315 278 310 306 294 294 298 314 310 305 299 276 273 274 275 263 256 255 253 252 248 256 244 246 255 266 274 259
339 335 331 326 323 319 312 307 308 308 300 284 282 276 266 116 307 277 330 307 298 295 284 273 276 276 279 280 282 279 275 266 256 247 255 260 255 244 251 251 250 251 260 263 263
337 337 334 328 322 315 307 299 304 305 290 267 266 220 248 156 214 336 314 307 315 306 290 275 276 271 282 272 270 249 257 261 268 257 251 237 253 252 240 239 249 249 252 254 260
339 339 336 329 322 315 297 297 287 279 263 235 253 247 251 269 7 312 303 301 301 313 296 250 237 251 253 245 258 268 259 256 256 260 269 265 240 249 247 246 230 241 252 252 240
344 343 337 332 326 313 310 323 219 205 238 274 294 266 292 273 304 300 313 319 276 244 278 308 301 281 290 285 279 282 278 274 275 286 293 279 263 265 239 232 248 224 235 247 255
347 345 339 334 331 290 296 304 28 325 302 277 262 261 279 285 283 300 301 288 312 306 304 289 275 284 283 272 264 270 275 275 283 287 289 287 280 278 267 245 230 233 227 247 246
347 344 340 336 315 263 266 21 329 329 278 297 232 225 220 219 265 278 300 297 301 307 305 298 294 300 296 277 274 273 265 267 274 281 286 281 276 269 270 273 259 227 218 224 247
346 342 335 324 302 318 4 340 328 342 274 131 186 173 212 240 268 29 239 297 290 290 295 297 293 290 295 294 281 276 274 274 278 280 271 271 275 261 262 261 263 251 223 213 228
347 339 324 303 307 345 339 328 329 259 248 165 117 103 256 241 282 292 151 244 264 281 290 289 297 308 307 265 263 277 291 285 288 282 279 260 262 264 268 253 252 255 255 212 213
344 337 307 276 254 330 330 324 272 243 202 150 158 241 266 300 289 309 253 260 267 269 272 282 330 295 298 309 295 276 289 282 282 280 265 264 255 258 253 262 259 229 244 244 211
341 332 273 297 330 337 326 287 254 261 130 70 349 323 316 281 337 304 308 280 300 330 316 308 306 327 325 275 282 267 262 272 267 261 260 257 248 256 255 257 265 267 240 230 227
339 331 270 262 315 333 313 277 278 13 23 357 332 307 269 252 296 255 274 297 26 299 294 327 318 340 321 308 309 301 298 276 271 293 302 317 310 253 239 254 265 298 257 270 210
340 286 231 228 322 326 295 258 321 8 349 330 313 302 337 336 350 309 299 321 341 322 304 297 289 297 298 298 281 290 287 257 251 273 281 261 282 279 273 265 250 248 239 72 37
329 299 70 94 354 306 270 275 292 8 352 322 300 320 331 323 319 326 313 328 330 334 303 306 300 300 305 294 282 275 282 273 257 276 254 278 249 252 271 268 231 249 261 165 134
287 236 89 354 306 255 275 294 333 353 332 318 322 309 313 319 327 319 316 327 2 349 339 314 320 308 302 282 299 272 286 248 248 245 277 288 267 6 304 288 270 228 222 143 174
300 304 74 333 248 248 267 9 296 299 315 295 292 290 307 315 313 304 304 322 354 343 328 333 287 284 298 290 19 4 300 22 214 267 289 255 279 272 335 334 288 216 171 144 141
300 300 131 279 300 325 324 318 313 322 311 312 298 299 315 305 316 308 306 312 345 323 319 321 295 306 295 272 29 357 302 297 333 274 266 264 281 357 354 345 340 53 95 104 55
290 341 6 311 305 304 332 309 325 324 277 301 318 301 313 321 305 285 299 339 297 310 300 271 269 267 282 286 269 252 275 279 199 253 267 283 297 358 355 337 322 321 169 103 90
314 2 21 304 324 332 308 300 289 301 327 312 281 300 319 312 302 299 305 316 311 316 305 243 274 283 280 280 278 265 264 271 269 262 274 281 298 346 202 299 291 295 293 341 290
353 353 344 301 309 281 323 303 328 347 334 307 298 314 314 298 292 294 296 298 298 299 304 299 283 303 293 289 284 318 299 299 291 293 277 280 283 287 146 187 256 263 294 297 288
19 28 343 295 289 300 313 317 307 318 305 294 334 316 300 293 294 302 286 280 279 284 285 284 275 293 286 294 312 308 113 347 327 319 324 344 351 346 333 276 309 327 335 326 323
Height
818 815 811 808 805 802 798 795 792 790 786 784 781 778 775 772 767 764 762 762 762 761 758 756 757 756 753 751 746 741 760 755 745 739 727 707 713 698 691 693 680 675 678 680 682
817 814 811 808 804 801 797 794 791 788 785 783 779 776 773 770 767 762 761 760 760 759 757 753 749 748 748 744 744 743 748 741 728 719 716 708 705 708 706 701 693 682 677 683 687
816 813 810 806 803 799 796 793 790 787 784 781 778 774 771 769 761 753 758 759 758 757 758 754 750 746 747 739 736 733 732 727 721 716 711 709 706 701 707 709 693 692 684 683 688
816 813 809 805 800 797 794 792 789 786 784 781 777 773 770 770 755 756 757 757 756 755 754 749 745 746 748 745 731 736 719 719 717 712 712 712 702 707 705 701 685 682 680 683 690
815 812 808 804 800 795 792 790 787 784 782 779 776 774 770 761 752 756 757 756 756 754 750 746 744 741 741 731 730 724 721 714 710 709 706 703 704 706 706 697 688 682 678 678 684
814 810 806 802 798 793 790 787 784 782 780 777 775 774 773 761 753 754 755 754 751 750 749 747 742 738 734 731 726 719 713 710 708 705 700 706 700 701 692 692 692 686 680 678 688
814 809 805 800 795 791 787 785 782 779 776 774 773 774 767 754 753 753 751 750 749 747 747 745 742 742 736 735 722 722 723 714 704 700 698 697 704 698 688 688 692 689 684 677 675
812 807 802 798 793 788 784 781 779 776 774 772 772 773 761 751 752 750 750 747 746 745 745 745 745 744 744 738 735 735 727 727 697 701 692 702 706 686 684 688 690 691 684 677 673
810 805 799 794 789 785 782 779 776 774 772 772 772 768 748 750 750 750 750 747 746 744 742 741 742 746 745 746 741 728 734 723 705 690 689 698 697 678 677 682 687 686 682 679 674
808 802 796 790 785 782 778 776 773 773 770 772 768 765 749 745 747 749 746 746 744 744 740 735 736 741 736 738 744 730 720 707 705 694 692 689 682 670 670 672 678 680 680 674 672
806 800 793 786 782 780 776 773 772 772 769 754 750 746 746 746 748 746 742 745 741 742 744 733 741 739 727 721 717 716 716 711 698 690 695 689 679 663 660 666 667 668 673 671 667
805 798 790 784 781 779 777 769 770 771 765 750 746 746 746 748 750 742 743 747 743 747 737 738 738 723 717 717 719 721 722 715 705 699 704 696 684 666 654 650 652 657 661 664 659
803 796 789 785 781 778 774 773 773 769 765 740 741 742 743 744 746 743 740 741 743 744 741 743 734 721 721 719 721 715 717 716 715 704 702 699 690 674 655 647 640 637 642 648 653
801 794 788 785 785 772 769 773 771 771 765 747 743 739 741 739 741 736 737 742 746 746 738 736 724 724 723 721 714 717 705 705 707 709 717 699 699 676 661 655 644 632 629 636 643
799 792 787 784 781 772 775 772 771 770 765 739 736 740 738 742 735 730 734 739 744 737 735 734 728 726 730 723 713 713 701 704 703 704 704 702 701 679 662 654 641 632 626 624 630
796 790 786 783 780 775 773 772 770 770 763 738 734 738 737 730 730 728 730 727 722 723 719 724 722 725 722 716 713 697 705 707 706 708 711 696 697 676 670 651 637 625 623 618 620
792 786 785 783 777 776 774 768 769 760 729 738 740 737 737 735 731 729 735 730 728 740 736 732 722 725 728 718 706 700 710 722 718 713 701 684 686 667 657 644 634 622 614 610 610
787 784 784 783 780 778 775 770 773 734 740 739 741 740 735 724 730 731 728 726 719 731 737 741 743 729 717 721 717 711 712 730 740 730 716 694 699 656 644 634 623 616 603 596 600
786 781 781 779 780 779 776 772 754 749 749 753 746 736 733 725 730 732 727 726 726 725 740 739 735 720 714 709 711 709 714 703 718 715 717 703 692 663 644 629 627 618 608 608 607
790 782 774 778 779 780 776 768 752 745 751 753 757 741 748 742 741 737 732 722 726 728 727 732 735 719 711 703 704 703 699 714 725 728 721 690 680 670 652 633 625 622 613 609 612
787 773 777 778 778 776 778 761 751 751 754 761 758 758 750 750 746 744 739 729 732 739 738 731 733 732 718 707 705 700 693 691 696 704 700 701 668 655 653 634 626 621 610 611 615
786 772 777 778 776 767 762 755 761 754 752 754 754 753 752 751 749 749 745 737 738 738 739 734 740 735 723 703 712 720 699 710 727 708 694 700 674 653 654 639 629 608 607 611 613
785 771 776 776 775 769 760 754 749 754 756 756 754 749 749 750 756 750 744 736 742 745 749 754 738 738 721 706 727 733 714 708 713 704 693 686 673 654 663 665 663 618 611 616 620
790 780 770 770 768 771 769 764 755 749 753 755 756 753 750 752 747 748 741 740 745 745 743 745 741 740 742 727 723 732 710 698 705 699 681 670 664 685 694 703 675 657 617 618 624
790 782 786 782 777 777 777 770 760 753 747 750 752 754 756 759 753 749 742 741 736 738 735 740 743 730 720 714 705 698 701 689 676 656 666 667 665 667 689 702 686 670 641 626 624
803 803 798 794 778 775 774 765 763 760 768 765 763 757 762 763 761 753 746 742 744 738 735 737 738 727 718 707 694 697 686 665 655 648 643 653 660 648 674 682 671 656 635 627 624
812 812 813 798 779 770 765 769 769 770 770 761 759 761 758 755 746 740 738 732 731 735 739 741 735 731 719 704 695 696 690 689 680 675 655 665 670 655 655 658 654 638 635 631 626